Wind_Speed
28 27 23 22 22 24 26 28 29 28 27 27 28 28 27 27 27 26 26 28 30 31 30 28 28 30 30 28 25 26 27 28 28 28 29 30 31 32 34 35 36 38 39 39 39 38 38 38 37 36 35 34 33 33 33 32 32 32 32 33 33 33 33 33 35 38 41 42 43 43 43 43 44 48
28 26 24 23 23 24 25 25 26 26 26 27 28 28 28 27 27 27 26 27 29 30 30 29 30 30 31 29 28 28 29 30 30 31 33 33 34 36 37 39 40 41 41 42 42 42 42 41 41 41 40 39 38 38 37 37 37 36 36 35 36 36 35 35 35 36 39 43 45 45 45 45 45 46
31 29 28 26 24 24 25 26 25 25 26 27 27 27 27 28 28 27 26 26 28 29 29 30 31 31 30 29 30 30 29 29 29 30 32 33 35 37 39 41 42 43 43 43 43 44 44 44 44 44 44 43 42 42 42 42 42 41 40 38 38 39 39 38 37 37 38 42 46 48 48 48 47 47
33 33 32 30 27 25 27 28 28 27 27 27 27 27 28 29 29 30 29 28 28 28 29 29 30 29 29 29 29 30 29 28 30 32 33 35 37 39 41 43 44 45 46 46 46 46 46 46 46 46 46 46 46 46 45 45 46 45 43 41 40 41 42 42 40 39 39 41 44 49 51 50 50 49
35 35 34 32 29 27 28 30 29 28 27 28 28 28 29 30 31 31 30 27 26 28 30 30 30 28 28 29 30 31 31 33 35 38 40 41 42 43 44 45 45 46 47 49 50 50 49 49 49 48 48 48 48 48 48 48 48 47 45 44 43 42 43 45 44 42 41 41 44 48 53 53 52 51
38 36 35 33 30 29 29 30 30 29 29 30 30 30 30 30 30 29 27 25 26 28 31 31 31 30 31 32 34 36 38 40 42 43 45 48 49 49 49 48 47 46 47 48 50 51 51 51 52 52 51 51 51 51 51 51 50 49 47 46 45 44 44 45 47 46 44 44 44 47 53 55 54 53
40 37 35 33 31 29 29 30 30 30 31 32 33 33 32 31 29 28 27 27 28 29 30 31 32 33 34 36 38 40 43 45 46 48 49 50 50 51 51 50 50 49 49 49 49 50 51 52 53 53 53 53 53 53 53 52 52 50 49 47 46 45 45 45 47 48 48 47 46 47 52 56 56 55
41 38 36 34 32 30 29 29 30 31 31 33 34 33 33 31 30 30 30 31 31 31 31 32 33 34 36 38 41 43 45 47 48 49 49 49 49 51 52 52 52 52 52 52 51 51 52 53 53 53 54 54 55 55 54 54 52 51 50 49 48 46 45 45 46 48 50 49 48 49 53 57 58 57
42 39 36 34 33 31 30 30 31 32 32 34 34 33 32 30 30 31 32 33 33 33 34 34 35 36 39 41 44 46 47 47 46 46 47 48 51 53 54 54 54 53 53 53 52 52 52 52 52 53 53 54 55 55 54 53 52 51 50 48 46 44 44 45 46 47 49 51 51 51 54 58 59 58
42 39 36 35 33 32 32 32 33 33 34 35 34 33 32 31 30 31 32 33 34 35 35 36 36 38 40 42 43 45 45 44 43 45 47 50 53 55 55 55 54 54 54 53 52 51 51 50 50 51 52 53 53 53 53 52 51 49 47 45 43 43 43 45 47 48 49 52 54 55 56 58 59 58
42 39 37 37 35 34 34 35 35 35 35 35 34 34 34 33 32 32 33 34 35 35 36 36 38 39 40 41 41 42 43 42 44 47 50 52 55 56 55 54 54 53 53 52 51 50 49 49 49 50 50 51 51 50 50 49 48 46 44 42 42 42 43 45 46 48 50 52 55 56 57 58 59 58
42 40 38 38 37 37 36 36 37 37 36 35 34 35 35 34 33 33 34 35 36 37 37 37 39 40 41 41 42 43 43 44 47 50 53 55 56 55 54 53 53 52 52 51 50 49 48 48 48 48 48 48 48 48 47 46 45 44 43 42 42 42 43 44 46 47 49 51 54 56 56 57 58 58
42 40 38 38 38 38 38 37 37 38 37 35 35 36 36 36 35 35 36 36 36 38 38 39 40 42 44 45 47 48 48 49 51 53 56 57 56 53 52 52 52 51 51 49 48 48 47 46 47 47 47 45 44 45 45 45 43 43 42 41 41 41 42 43 45 46 48 50 53 55 55 56 57 57
41 40 39 39 39 38 37 37 36 37 38 37 36 37 37 37 37 37 38 38 38 39 40 40 42 44 46 48 49 50 51 52 53 55 57 55 53 52 51 50 50 50 49 48 47 46 46 45 46 47 46 44 43 43 43 43 43 42 41 40 40 40 41 42 43 45 47 48 51 54 55 55 56 56
41 39 39 39 39 37 37 37 36 37 38 38 37 36 37 39 40 41 41 41 41 42 43 43 45 47 48 49 50 51 52 53 54 54 53 52 51 51 50 49 48 47 46 46 46 45 45 45 46 46 45 43 43 43 42 42 42 41 41 40 39 40 41 42 43 43 45 47 49 52 54 54 54 54
41 39 38 38 39 39 39 37 37 38 39 38 36 37 39 41 43 43 42 42 43 44 46 48 50 50 50 51 51 52 52 51 51 50 50 50 50 50 49 48 46 46 47 47 47 45 43 44 45 45 43 42 42 42 42 41 41 41 41 40 39 40 40 41 43 43 44 46 48 50 52 52 53 54
41 40 38 36 37 39 40 39 37 36 36 36 36 38 40 42 44 44 43 43 44 45 48 51 52 52 51 51 51 51 51 49 48 48 48 49 49 48 48 47 47 48 48 48 49 45 42 43 44 42 41 41 41 41 40 40 40 41 40 40 39 40 40 41 42 44 45 46 47 49 50 51 52 53
41 39 37 35 36 39 41 41 38 34 35 37 39 41 42 42 44 44 43 44 45 48 52 53 53 52 51 51 51 50 50 49 48 49 49 49 49 48 48 49 49 48 47 47 47 43 41 42 43 41 40 40 41 40 39 39 39 40 40 39 39 40 41 42 43 44 45 47 48 49 49 50 51 52
39 38 36 36 37 38 40 42 40 38 38 40 42 43 44 43 44 44 44 45 48 51 55 55 53 52 51 51 51 50 50 50 50 51 51 50 49 49 50 50 48 46 44 44 44 42 40 42 41 39 39 40 40 39 39 39 40 40 40 40 40 40 41 43 45 46 48 49 50 51 51 51 51 51
36 35 36 37 38 40 41 43 43 41 40 41 43 45 45 45 45 46 47 49 52 55 55 54 52 51 51 51 51 50 50 51 52 52 51 50 51 52 52 50 46 44 42 43 44 42 40 40 40 38 37 39 38 38 39 40 40 39 39 40 40 41 42 44 46 48 50 51 53 54 55 55 54 53
34 34 37 40 42 43 45 46 44 42 41 43 45 46 46 46 47 48 50 52 55 56 54 52 51 50 50 50 51 51 51 52 52 51 51 52 53 54 52 49 45 43 41 42 44 42 40 40 38 36 36 38 38 38 39 39 39 38 38 39 40 41 44 46 49 51 53 55 57 58 59 58 57 55
35 36 39 42 44 46 47 47 45 43 43 45 46 46 46 46 47 50 52 55 56 54 52 50 49 48 48 49 50 51 51 51 51 52 53 53 53 52 50 47 44 42 41 42 43 43 41 40 38 37 37 37 37 38 39 38 38 38 38 39 41 44 47 49 52 54 56 59 62 63 63 62 59 58
37 38 40 43 45 47 48 48 46 45 45 47 47 46 46 47 49 52 54 54 54 52 50 50 49 49 49 50 50 50 49 50 51 53 53 51 50 48 46 43 41 39 39 41 43 42 40 38 37 37 38 37 35 36 38 39 39 40 40 42 44 46 49 52 54 57 60 62 64 65 65 61 59 59
37 38 41 43 45 47 48 49 49 47 48 48 47 46 46 49 52 54 53 53 52 51 50 50 50 50 50 51 51 50 50 51 53 53 51 48 46 43 41 39 37 36 37 40 41 40 37 35 34 36 38 37 35 34 35 37 39 41 42 44 46 47 50 53 56 59 61 62 62 61 57 52 52 54
38 40 41 43 45 47 48 49 49 49 49 48 46 46 49 52 54 53 52 51 51 51 51 50 50 51 51 51 50 50 51 52 52 51 48 46 43 40 38 36 35 35 37 38 39 38 35 33 33 35 37 37 36 34 33 34 36 39 42 43 46 48 50 54 57 58 58 55 52 48 43 41 45 48
39 40 40 41 44 46 47 48 49 49 49 47 47 49 52 53 53 52 51 51 51 52 51 51 51 51 50 50 50 51 51 51 49 47 45 43 40 38 36 36 35 35 37 38 38 37 36 34 35 37 37 36 35 36 34 33 33 36 39 41 44 48 52 55 55 52 46 41 38 36 34 35 39 43
38 38 38 40 42 44 46 47 48 49 48 48 50 52 54 53 53 52 51 52 53 53 52 52 52 51 50 50 49 49 49 47 45 43 41 39 37 36 35 36 36 36 37 37 38 38 37 36 37 38 37 36 36 36 36 34 33 34 37 40 43 47 51 51 48 43 37 33 31 31 31 32 35 39
39 39 39 42 44 45 46 47 48 49 49 50 52 53 53 52 52 51 52 54 54 53 52 52 51 49 48 48 47 47 45 43 41 40 38 36 35 35 35 35 36 36 37 38 38 38 37 36 37 37 37 36 37 38 37 36 36 36 38 39 41 45 47 44 40 37 36 33 31 30 30 30 33 36
42 42 42 44 46 46 46 46 48 49 50 52 52 52 52 51 52 53 54 54 54 53 52 50 48 46 46 46 46 44 42 40 39 38 36 35 35 34 34 35 35 36 37 37 38 37 37 37 37 36 36 36 38 39 39 38 37 38 40 42 42 42 41 38 35 36 37 35 31 31 31 31 31 34
45 44 44 45 46 46 46 47 47 49 50 50 50 50 51 52 53 54 54 53 52 51 50 48 46 45 45 45 43 41 40 38 37 36 35 35 35 34 34 34 35 35 36 36 37 37 37 37 37 36 36 36 38 40 41 40 38 38 41 45 43 37 34 32 33 35 38 36 33 33 32 31 31 33
44 44 44 44 44 44 45 46 47 48 48 48 49 50 52 53 54 53 52 52 51 49 48 48 46 45 43 41 40 39 39 37 36 35 35 35 35 35 35 34 34 34 35 35 36 37 37 37 37 37 36 37 38 40 41 41 41 40 41 44 41 32 27 28 31 33 36 35 34 33 33 32 31 31
42 41 42 42 42 43 45 45 46 46 47 49 51 52 53 52 52 51 50 50 48 46 46 46 44 42 40 39 39 39 38 36 36 35 35 35 35 35 35 34 34 33 33 34 36 36 36 36 36 36 36 37 39 41 42 41 42 42 43 42 36 27 24 27 29 31 34 35 34 33 33 32 31 30
41 41 41 42 43 44 45 46 46 47 49 51 52 52 51 51 49 48 46 43 42 41 40 40 39 39 38 38 38 37 37 36 35 35 35 35 35 35 35 34 33 33 33 33 34 35 35 35 35 35 36 36 38 42 43 42 41 42 44 42 34 24 23 27 28 28 31 33 33 33 32 31 31 30
42 41 42 43 44 45 45 46 47 49 51 51 50 49 48 47 45 42 40 38 37 37 36 36 37 38 38 37 37 36 35 35 34 34 35 35 35 35 34 33 33 33 33 33 34 34 34 34 34 33 34 35 36 40 45 46 44 42 43 43 37 26 21 24 27 27 28 29 29 29 30 30 30 29
43 42 43 44 45 46 47 48 49 50 50 49 48 47 45 43 41 40 39 38 38 39 38 38 38 37 37 36 36 35 35 34 34 34 34 34 34 35 34 33 32 32 33 33 34 34 34 34 33 32 32 33 33 36 41 47 49 46 42 41 38 30 23 23 25 25 25 25 25 25 25 27 28 26
44 44 44 45 46 48 48 48 49 49 48 46 45 44 42 41 41 41 40 40 41 41 41 40 39 38 37 36 36 35 34 34 33 33 33 34 34 34 33 32 31 31 32 33 34 34 34 34 33 32 31 31 31 31 34 40 47 49 46 41 36 30 24 22 23 23 22 22 21 21 21 24 25 24
44 44 44 45 47 48 47 46 46 45 44 42 41 40 40 40 40 40 39 39 40 40 40 40 39 38 37 36 35 35 34 33 33 33 33 33 33 32 32 31 31 31 32 33 34 34 34 34 33 33 31 31 31 30 31 33 39 44 46 43 36 29 24 22 21 20 20 19 18 18 18 21 24 22
43 42 44 46 47 46 45 43 42 40 39 38 38 38 38 37 38 39 38 38 38 38 38 38 38 37 36 35 34 34 33 32 32 32 32 32 31 31 31 31 30 31 31 32 33 34 34 34 34 33 33 32 31 31 31 31 33 37 41 39 32 26 24 22 20 19 19 17 15 15 16 19 22 21
41 42 44 45 45 43 41 39 37 36 36 36 36 35 35 35 36 37 36 36 35 35 35 36 35 35 34 34 33 32 31 31 31 31 31 31 31 30 31 31 30 30 31 32 33 33 33 33 33 33 33 33 33 33 33 33 33 35 38 36 29 23 21 21 20 18 17 15 14 14 15 17 20 20
42 43 44 43 41 39 36 34 33 33 33 33 33 33 33 34 35 35 36 35 35 34 33 33 33 33 33 32 31 31 30 30 30 30 30 30 30 31 31 31 31 31 31 31 32 32 33 33 32 32 32 33 33 33 33 34 34 35 36 36 32 25 20 19 18 16 14 13 14 15 14 15 18 19
42 42 40 38 36 34 32 31 30 30 30 30 31 32 33 34 35 35 36 35 34 33 32 32 31 31 31 30 30 29 29 29 29 29 30 30 30 31 31 31 31 31 31 31 31 32 32 32 31 31 31 32 32 32 32 32 32 32 32 33 31 27 22 19 16 13 12 11 12 14 14 15 17 18
39 37 34 32 30 29 28 27 27 27 28 29 30 31 31 32 33 34 33 33 33 32 32 31 30 30 30 29 29 28 28 29 29 29 30 30 31 31 32 32 31 31 31 31 31 31 31 31 31 30 31 31 32 31 31 30 31 31 30 29 27 24 21 18 14 12 11 11 11 12 13 15 18 19
34 31 28 26 26 25 24 24 25 26 27 28 28 29 30 30 31 31 31 30 30 29 29 29 29 29 28 28 28 28 28 28 29 29 30 31 31 31 32 32 32 31 31 31 31 30 30 31 30 29 30 30 31 31 31 30 30 31 30 27 24 21 19 16 13 11 11 10 10 11 12 14 17 19
28 25 24 23 22 21 21 22 23 25 25 26 27 28 28 28 29 29 29 29 28 27 27 27 27 27 27 27 27 27 27 28 28 29 29 30 30 31 31 31 31 31 31 31 30 30 30 30 29 29 29 29 30 31 31 29 29 30 30 27 21 17 16 15 13 12 11 10 9 9 11 14 16 17
24 22 21 20 20 20 21 21 22 22 23 24 25 26 26 27 28 28 28 28 28 27 27 27 26 26 26 26 27 27 27 27 28 29 29 30 31 32 32 32 32 32 32 31 30 30 30 29 29 28 28 28 29 30 31 30 28 29 30 27 21 15 13 14 14 12 11 10 9 9 11 13 14 16
Wind_Direction
303 308 309 309 309 305 302 301 299 294 290 288 289 290 288 286 287 289 291 291 290 290 291 292 293 293 292 294 298 301 302 304 307 311 314 317 319 319 318 317 315 313 310 309 307 306 305 303 302 301 300 300 299 298 296 294 291 288 284 280 277 273 267 264 264 264 262 260 257 254 251 249 246 243
301 307 314 314 313 312 310 307 303 297 293 292 290 289 288 287 287 287 288 288 288 289 292 296 295 294 294 297 302 305 308 311 313 315 317 317 316 314 312 311 309 308 306 305 304 303 303 302 301 300 300 300 300 300 299 297 294 291 288 285 282 278 272 266 263 262 262 260 258 254 252 249 246 244
307 307 313 316 315 316 316 313 306 300 296 296 293 290 289 287 287 287 286 286 286 287 292 297 297 295 296 300 304 308 311 313 313 313 313 313 311 310 309 308 307 306 305 304 303 301 300 299 299 298 298 299 299 299 298 297 295 292 289 286 284 282 278 272 266 263 262 261 259 255 252 249 247 244
312 310 311 312 310 311 315 314 309 303 300 299 296 292 289 287 287 287 287 285 285 286 289 294 296 295 297 301 305 308 310 308 306 308 309 309 309 309 309 308 307 305 304 303 302 301 300 299 298 297 297 297 297 297 296 295 293 291 289 287 284 283 281 277 272 266 263 262 260 257 253 250 247 244
311 310 310 310 306 304 308 311 308 304 302 300 297 293 290 288 289 289 288 286 286 290 293 293 293 294 297 302 304 305 306 306 306 307 308 308 308 308 307 307 306 304 302 300 299 298 298 297 296 296 295 295 295 295 295 294 292 290 289 287 285 282 280 278 275 270 265 262 260 258 255 251 247 244
310 310 309 308 305 300 300 304 305 304 303 302 299 296 293 292 292 291 290 289 290 295 297 296 293 293 296 299 302 303 304 305 306 306 306 306 306 306 306 305 304 302 300 298 297 296 296 296 295 295 294 294 294 294 294 292 291 289 288 287 284 281 278 276 274 271 266 261 259 258 255 252 248 245
311 312 309 307 305 301 298 301 304 303 302 301 301 299 297 296 295 293 291 290 291 292 295 297 295 294 295 297 299 300 301 302 303 303 304 304 304 304 305 304 304 302 301 299 298 297 296 296 295 294 294 293 293 293 292 291 290 289 288 286 284 280 276 272 270 270 267 261 257 256 255 252 249 245
310 312 310 308 307 304 301 302 303 302 301 301 303 302 299 298 297 295 292 291 290 289 291 292 292 292 293 294 295 296 296 298 299 300 301 302 304 305 304 304 303 302 301 300 298 297 296 295 294 293 293 292 292 291 291 290 290 289 288 286 283 279 274 269 265 265 264 260 255 252 252 252 249 245
308 310 309 307 306 306 303 302 302 301 300 301 303 303 300 298 295 294 293 293 293 293 292 292 291 291 291 291 292 291 292 294 296 298 300 303 305 305 304 304 303 301 300 298 297 296 295 294 293 293 293 292 291 290 290 290 290 290 288 285 282 277 271 265 260 258 258 257 253 250 249 250 249 246
304 307 306 304 304 304 302 301 300 299 300 301 303 302 300 298 296 295 296 296 296 296 295 294 294 293 293 292 291 291 291 293 296 300 304 306 306 304 303 302 300 299 297 295 295 294 294 294 293 293 293 292 291 291 291 291 290 289 286 282 278 273 267 263 258 254 252 251 251 249 247 248 248 247
300 304 304 301 300 300 299 300 299 298 299 301 301 300 299 299 300 300 300 300 299 299 299 297 297 298 298 297 296 295 294 294 297 301 304 305 305 303 300 299 297 296 294 293 293 294 294 294 293 292 292 292 293 293 293 292 290 286 282 277 274 271 267 263 258 254 250 247 248 249 247 247 247 246
298 301 302 299 297 297 297 296 296 298 299 299 298 298 298 299 300 302 302 303 303 303 302 302 303 305 305 305 303 301 298 297 298 301 302 302 302 300 298 296 295 293 292 292 293 294 294 294 293 292 292 293 293 293 292 290 287 283 279 276 273 269 266 263 259 256 252 248 247 248 247 247 247 246
295 299 300 296 294 294 293 293 295 298 298 296 295 296 297 299 301 302 303 304 305 305 304 305 306 307 306 305 303 301 298 297 298 300 300 300 299 298 296 295 293 292 292 292 293 294 294 293 293 293 293 293 292 291 289 286 283 280 277 275 272 269 265 262 258 256 253 249 248 248 248 246 246 245
295 298 298 295 294 293 292 294 296 296 294 293 294 295 297 299 301 302 302 303 304 304 304 304 305 305 303 301 299 297 296 296 296 297 298 298 297 296 294 293 292 292 292 292 294 294 294 293 293 293 292 291 289 288 285 282 280 277 276 274 272 269 266 263 259 256 254 251 249 248 248 246 245 245
296 298 297 297 297 294 292 295 296 293 292 291 292 294 298 300 301 301 301 301 301 302 302 303 304 303 301 299 298 296 296 296 296 297 297 296 296 295 294 293 292 293 294 294 294 295 294 292 292 291 290 289 288 286 283 279 277 276 274 273 271 269 267 265 262 258 255 253 251 250 249 247 246 245
297 297 295 295 295 294 294 296 295 293 290 288 291 297 300 299 299 299 299 299 299 299 301 303 303 302 299 298 298 297 297 298 297 297 297 296 296 295 294 293 294 295 296 295 295 295 293 290 289 289 288 287 286 284 281 278 276 274 272 271 270 268 266 264 263 261 258 255 253 252 251 249 247 245
296 295 294 294 293 293 295 295 293 290 286 285 291 295 296 297 298 298 297 298 298 298 300 303 303 301 300 300 300 300 300 300 298 298 297 297 296 295 294 294 296 298 298 296 296 295 291 287 287 287 286 285 285 283 279 275 274 272 271 270 269 268 267 264 262 261 259 257 255 253 252 250 248 246
295 294 293 293 292 294 295 294 293 288 283 285 290 293 294 297 297 296 297 298 299 301 303 304 303 302 301 301 302 302 302 301 300 299 299 298 296 295 295 298 300 300 299 297 296 294 289 285 286 286 285 285 284 282 278 275 273 271 270 269 269 268 267 266 264 263 262 260 258 256 254 251 249 246
293 292 292 292 293 293 292 291 292 289 284 284 288 293 295 296 295 294 296 298 299 301 303 303 302 302 302 303 304 303 302 301 300 300 300 299 297 296 298 301 302 300 298 295 294 292 288 285 285 286 285 285 284 281 278 276 274 272 271 271 270 269 268 267 266 265 264 263 262 260 258 254 250 246
291 292 293 291 291 289 287 288 291 289 283 283 289 294 296 294 294 294 294 295 297 300 302 301 301 301 303 304 304 303 301 301 301 301 300 299 298 299 300 302 302 300 297 294 291 289 287 285 286 287 286 285 281 276 274 275 275 274 273 272 271 270 269 267 266 266 266 266 265 263 261 258 252 247
290 292 290 287 286 286 286 288 290 288 284 286 291 294 294 293 293 293 294 296 298 301 301 301 301 303 304 304 303 302 302 301 301 301 301 300 300 301 302 302 302 301 297 293 291 291 290 290 290 290 288 284 279 272 270 273 276 276 275 274 272 271 269 268 268 268 268 269 268 266 263 260 255 249
288 287 285 284 284 285 286 288 289 287 286 288 292 293 293 294 295 296 297 298 299 300 300 301 303 305 305 304 303 303 302 301 300 301 301 302 302 302 303 303 302 300 296 293 292 292 293 294 294 292 288 284 279 273 271 273 276 276 275 273 272 271 270 270 270 270 271 270 269 267 265 262 259 254
287 285 284 283 284 285 287 288 288 286 285 288 291 293 294 296 298 299 299 299 299 299 300 302 304 304 304 303 303 302 301 300 301 302 302 302 302 303 303 302 300 297 294 291 291 292 294 294 293 290 286 283 280 276 274 274 275 275 274 273 272 272 272 273 273 274 274 273 271 269 268 266 262 257
287 285 284 284 285 286 286 286 285 284 286 289 293 294 294 296 298 299 299 298 298 300 302 304 304 303 303 303 301 300 300 300 301 302 302 302 303 302 301 300 298 297 294 291 292 293 294 294 292 289 288 286 284 280 277 275 275 275 275 274 274 274 276 277 277 277 277 276 274 272 271 267 259 252
287 286 285 285 285 285 284 283 283 284 286 290 292 293 294 296 298 298 298 298 299 301 303 303 303 303 303 301 300 300 300 300 300 301 302 303 303 302 301 301 301 299 296 295 295 294 295 296 294 292 292 292 290 287 282 278 277 277 277 277 278 280 282 283 282 281 279 277 274 272 267 259 253 247
290 288 286 284 283 282 282 282 283 285 289 291 292 293 294 296 297 296 297 298 300 302 302 302 302 302 301 300 299 299 299 299 300 302 302 302 301 302 303 303 302 300 298 296 296 295 296 297 296 295 296 297 295 292 288 284 282 281 281 283 286 288 290 289 285 282 280 276 272 268 261 254 251 246
292 291 286 284 283 282 282 283 285 288 290 291 291 293 294 295 295 295 297 298 300 301 301 301 301 301 300 299 299 299 299 299 300 301 301 299 299 301 303 302 301 300 298 297 296 297 298 298 298 298 300 300 298 295 293 290 289 288 288 289 292 295 294 290 285 281 278 274 270 266 260 254 251 246
294 292 288 285 284 282 282 283 286 288 289 289 291 293 294 294 294 295 297 298 299 300 301 301 300 299 298 298 299 298 298 299 300 300 298 297 298 301 302 301 299 298 297 296 296 297 298 299 299 301 303 303 301 299 297 296 297 296 294 293 296 299 296 290 283 279 276 273 270 267 262 255 252 248
294 292 287 285 284 283 283 285 286 287 288 289 290 292 293 293 294 296 298 299 299 300 300 300 299 298 298 299 299 297 297 298 298 297 295 296 298 300 301 299 297 297 296 296 296 297 299 300 301 303 305 305 303 302 300 300 301 302 301 300 302 302 295 285 277 273 273 272 271 269 266 259 252 250
295 293 290 288 288 287 286 286 286 286 288 289 291 293 294 295 296 297 298 299 299 299 299 298 297 297 298 299 298 296 297 298 297 295 295 296 298 300 300 299 297 296 296 296 298 299 301 302 303 305 306 306 305 304 303 303 304 304 305 306 306 301 290 279 272 270 271 273 272 269 267 262 254 250
295 292 290 290 289 288 286 285 286 288 290 291 293 294 295 297 297 298 299 299 300 300 300 299 299 299 299 298 296 296 298 298 296 295 295 297 299 300 299 298 297 297 297 299 300 301 302 303 304 306 308 308 307 306 305 306 307 306 308 310 309 300 283 272 269 269 271 273 273 269 267 264 257 250
294 290 289 289 288 288 287 288 289 291 293 294 295 296 298 298 299 300 300 300 300 300 298 298 298 298 297 296 296 298 299 298 297 296 297 298 299 299 299 298 298 297 298 300 301 302 303 304 305 308 310 310 309 307 306 307 308 309 312 314 313 302 283 271 267 266 266 267 268 267 266 263 257 249
295 292 291 291 291 290 291 292 293 295 296 297 298 299 299 299 299 299 299 298 297 295 295 295 296 296 296 297 298 299 300 299 297 297 297 297 298 299 299 299 299 299 299 300 300 301 302 303 305 308 310 311 311 309 308 308 309 312 316 318 314 303 286 276 272 269 266 265 265 266 264 260 254 247
296 294 293 292 292 292 292 294 295 296 297 298 298 298 298 298 298 298 299 300 299 298 298 298 297 297 298 299 299 300 299 298 297 296 297 297 298 299 299 299 299 299 300 300 300 301 301 302 304 307 309 311 313 313 311 311 312 315 318 318 313 303 288 279 276 274 272 269 266 264 261 257 252 247
296 295 294 293 293 293 295 297 298 298 299 300 300 299 300 300 301 301 303 304 304 302 301 299 297 297 298 299 300 300 299 298 297 297 297 298 298 299 299 299 299 299 300 300 301 301 301 301 303 306 308 310 313 314 313 312 313 315 318 317 311 304 295 287 283 279 276 274 270 263 257 252 247 242
297 296 295 295 295 297 298 300 301 301 302 302 302 302 304 305 306 306 306 306 305 304 303 301 300 300 300 299 299 299 298 298 298 297 298 299 299 299 298 298 299 299 300 300 300 301 301 302 304 306 307 309 312 313 312 312 313 314 316 315 309 301 295 292 289 285 279 277 272 263 253 244 237 236
297 297 297 297 298 300 301 302 302 302 303 303 304 305 307 308 307 307 307 307 306 304 303 302 301 301 301 300 299 298 298 298 298 298 299 299 298 298 297 298 299 300 300 300 300 301 302 304 305 307 308 309 312 313 312 311 311 312 313 312 306 299 294 292 290 285 280 275 268 258 248 235 229 235
298 298 298 299 300 301 301 302 303 303 304 304 305 307 308 308 307 307 308 307 305 303 302 301 301 301 300 299 298 298 298 299 299 299 299 298 297 297 297 298 299 299 299 300 300 301 303 304 306 308 310 311 314 314 313 312 311 312 312 310 303 296 293 291 288 283 278 273 264 253 243 230 226 232
299 299 299 299 300 300 301 302 303 304 304 306 308 309 309 309 309 309 309 308 306 304 302 301 301 300 300 299 299 299 300 300 300 300 299 298 298 298 298 298 299 299 299 299 299 300 302 304 307 309 311 313 316 317 316 316 317 318 318 314 306 296 291 290 288 283 277 271 259 246 238 229 227 232
300 300 300 299 300 301 302 304 305 306 307 309 311 312 312 312 313 313 313 312 310 308 306 305 304 303 302 301 301 302 302 302 302 301 300 299 299 299 298 299 299 298 298 298 298 299 301 303 306 309 311 314 316 318 319 321 322 323 322 317 310 302 294 291 286 276 271 269 259 246 237 231 229 233
300 300 300 299 300 301 303 305 307 309 311 312 314 315 317 317 317 317 315 314 313 311 309 308 307 306 305 304 304 304 304 304 303 302 301 301 300 299 299 299 298 298 298 297 298 299 300 302 305 309 311 313 316 319 320 321 321 321 319 315 310 304 298 295 283 262 256 265 261 250 242 235 231 232
300 300 299 299 300 302 305 308 309 310 313 316 318 319 320 319 318 318 317 316 315 314 313 312 311 309 308 308 307 307 307 305 304 303 302 301 301 300 299 299 299 298 298 298 298 298 299 302 305 308 311 314 316 319 321 321 320 320 318 314 309 301 294 291 278 253 248 259 260 256 253 245 237 234
300 300 300 300 302 305 307 309 311 312 316 319 321 321 322 322 322 322 322 321 320 318 316 315 314 313 312 312 311 310 308 307 306 305 303 303 302 301 301 300 299 299 298 298 298 298 299 301 304 307 310 313 316 319 321 321 322 322 319 315 308 297 287 282 269 251 253 260 256 258 263 252 240 237
300 300 301 303 304 306 307 310 312 315 319 321 322 323 325 327 328 329 329 328 326 324 322 321 320 318 317 316 314 313 311 310 309 307 306 305 304 303 302 301 300 299 298 297 297 297 298 300 303 306 310 313 316 319 321 322 324 324 322 317 308 293 279 271 257 245 251 257 252 259 265 253 242 240
301 302 303 304 304 304 306 310 313 317 319 321 323 326 329 332 334 336 335 333 331 328 326 325 323 322 321 319 317 316 314 313 311 310 308 307 305 304 303 301 300 298 297 296 295 295 296 299 302 305 309 313 317 320 322 323 326 328 327 321 312 295 275 262 250 242 242 243 245 253 258 252 246 239
Height
5874 5872 5872 5871 5871 5871 5871 5870 5869 5869 5868 5868 5868 5867 5867 5867 5866 5866 5865 5863 5862 5861 5861 5861 5861 5860 5859 5859 5859 5858 5857 5856 5855 5854 5853 5852 5850 5849 5848 5848 5848 5847 5847 5846 5846 5846 5845 5844 5844 5843 5843 5843 5843 5844 5844 5845 5845 5846 5848 5848 5848 5849 5850 5851 5852 5853 5853 5854 5856 5857 5858 5860 5863 5865
5872 5871 5870 5870 5869 5869 5868 5868 5867 5866 5866 5865 5864 5864 5863 5863 5863 5862 5862 5861 5859 5857 5857 5856 5856 5855 5854 5853 5852 5852 5851 5850 5848 5846 5845 5844 5844 5844 5845 5845 5844 5844 5843 5842 5841 5841 5840 5839 5838 5838 5837 5837 5837 5837 5837 5838 5838 5839 5840 5841 5842 5842 5843 5844 5845 5846 5847 5848 5849 5851 5852 5854 5856 5858
5871 5870 5869 5868 5868 5867 5866 5865 5864 5864 5863 5862 5861 5861 5860 5859 5859 5858 5858 5858 5856 5854 5854 5853 5852 5850 5849 5848 5847 5846 5845 5844 5843 5842 5841 5840 5840 5840 5840 5839 5839 5839 5838 5837 5836 5835 5834 5834 5833 5833 5832 5831 5831 5831 5831 5831 5831 5832 5833 5834 5834 5835 5836 5837 5838 5839 5840 5841 5842 5844 5845 5847 5849 5851
5869 5868 5868 5867 5866 5865 5863 5862 5861 5860 5860 5859 5858 5857 5856 5856 5855 5854 5855 5854 5853 5851 5850 5850 5849 5848 5846 5845 5843 5842 5841 5839 5839 5839 5839 5838 5837 5836 5835 5834 5833 5832 5831 5830 5829 5829 5828 5828 5828 5827 5826 5825 5825 5824 5824 5824 5824 5825 5825 5826 5827 5827 5828 5829 5830 5831 5833 5834 5836 5837 5838 5840 5842 5844
5867 5866 5865 5864 5863 5862 5861 5860 5859 5857 5857 5856 5855 5854 5853 5852 5851 5851 5850 5850 5849 5848 5847 5846 5845 5844 5843 5842 5840 5838 5837 5836 5836 5835 5835 5834 5834 5833 5832 5830 5828 5827 5826 5824 5823 5823 5822 5821 5821 5821 5820 5819 5819 5818 5817 5817 5817 5818 5818 5818 5819 5819 5820 5821 5821 5823 5825 5827 5828 5830 5831 5833 5835 5838
5864 5863 5862 5861 5860 5859 5858 5858 5857 5855 5854 5853 5852 5851 5850 5849 5848 5847 5847 5847 5847 5845 5844 5843 5841 5840 5839 5838 5836 5834 5833 5832 5832 5831 5830 5829 5828 5827 5826 5825 5824 5823 5821 5820 5819 5817 5816 5815 5814 5813 5813 5812 5812 5811 5810 5810 5810 5810 5810 5810 5811 5811 5812 5813 5813 5814 5816 5818 5820 5822 5823 5825 5828 5830
5860 5860 5859 5858 5857 5857 5856 5855 5854 5853 5852 5851 5849 5848 5847 5846 5845 5845 5844 5844 5844 5844 5842 5840 5838 5836 5835 5834 5832 5831 5829 5828 5827 5826 5825 5824 5823 5821 5820 5819 5818 5816 5815 5814 5813 5811 5810 5808 5807 5806 5805 5805 5804 5803 5803 5802 5802 5802 5802 5802 5802 5803 5803 5804 5805 5805 5806 5809 5811 5813 5815 5816 5819 5822
5857 5857 5856 5854 5854 5853 5852 5851 5851 5850 5849 5847 5846 5845 5844 5844 5843 5842 5841 5840 5840 5840 5839 5838 5835 5834 5832 5830 5828 5826 5825 5823 5822 5821 5820 5819 5818 5816 5815 5813 5812 5810 5808 5807 5806 5804 5803 5801 5800 5799 5798 5797 5796 5796 5795 5795 5794 5794 5794 5793 5794 5794 5795 5795 5796 5797 5798 5799 5802 5805 5806 5808 5809 5812
5854 5854 5852 5851 5850 5850 5848 5848 5847 5846 5845 5843 5842 5842 5841 5840 5840 5838 5837 5836 5836 5835 5834 5833 5832 5830 5828 5826 5824 5821 5820 5819 5818 5816 5815 5814 5812 5810 5808 5806 5805 5803 5802 5800 5799 5798 5796 5795 5794 5792 5791 5790 5789 5788 5788 5787 5787 5786 5785 5785 5785 5785 5786 5787 5788 5789 5790 5791 5793 5796 5798 5799 5800 5803
5850 5850 5849 5848 5847 5846 5845 5844 5843 5842 5841 5840 5839 5838 5837 5836 5836 5835 5833 5832 5831 5830 5829 5828 5826 5825 5823 5821 5818 5816 5814 5813 5812 5811 5809 5807 5805 5804 5802 5800 5798 5797 5795 5794 5792 5791 5790 5789 5787 5786 5785 5783 5781 5781 5780 5780 5779 5778 5778 5777 5777 5777 5777 5778 5779 5780 5782 5783 5784 5786 5788 5790 5792 5795
5847 5847 5846 5844 5844 5843 5842 5840 5839 5838 5837 5836 5834 5833 5832 5832 5831 5830 5829 5828 5827 5825 5824 5822 5820 5819 5817 5815 5813 5810 5809 5807 5806 5804 5803 5801 5799 5798 5796 5794 5792 5791 5789 5787 5786 5784 5783 5782 5781 5779 5778 5776 5775 5774 5773 5772 5771 5771 5770 5769 5769 5769 5769 5769 5770 5772 5774 5775 5775 5776 5778 5781 5783 5786
5844 5844 5843 5841 5840 5839 5838 5836 5835 5834 5833 5832 5830 5828 5828 5828 5827 5826 5824 5823 5821 5819 5818 5816 5814 5812 5810 5808 5806 5805 5803 5802 5800 5798 5797 5796 5794 5792 5791 5788 5786 5784 5783 5781 5780 5778 5776 5775 5774 5773 5771 5770 5768 5767 5766 5765 5764 5763 5762 5761 5761 5761 5761 5762 5762 5763 5765 5766 5767 5767 5769 5772 5775 5777
5841 5840 5839 5837 5835 5834 5833 5832 5831 5830 5828 5827 5825 5824 5823 5823 5823 5822 5820 5818 5816 5814 5812 5811 5809 5807 5806 5803 5801 5800 5798 5797 5795 5792 5791 5790 5788 5786 5785 5782 5779 5777 5776 5775 5774 5772 5769 5768 5767 5765 5764 5763 5761 5760 5759 5758 5757 5756 5755 5754 5754 5754 5754 5754 5755 5755 5756 5758 5759 5759 5761 5763 5766 5769
5838 5836 5834 5832 5831 5830 5829 5828 5827 5825 5824 5823 5821 5820 5819 5819 5818 5817 5815 5814 5812 5810 5808 5807 5805 5803 5802 5799 5797 5795 5793 5791 5789 5787 5785 5783 5781 5780 5778 5776 5773 5770 5769 5768 5767 5765 5762 5761 5760 5758 5757 5756 5755 5754 5753 5751 5750 5749 5748 5747 5747 5747 5747 5747 5747 5748 5748 5749 5750 5751 5752 5755 5758 5761
5834 5832 5831 5829 5827 5825 5824 5824 5823 5821 5820 5819 5818 5817 5815 5814 5813 5811 5810 5809 5807 5805 5804 5803 5801 5799 5797 5794 5792 5790 5788 5786 5784 5781 5779 5777 5775 5773 5771 5769 5766 5763 5762 5761 5761 5759 5755 5753 5753 5752 5750 5750 5748 5747 5746 5744 5743 5742 5741 5740 5740 5740 5740 5740 5740 5740 5741 5742 5742 5743 5745 5747 5750 5753
5829 5828 5827 5825 5823 5821 5820 5820 5819 5817 5815 5814 5813 5812 5810 5808 5807 5806 5805 5803 5802 5800 5798 5797 5795 5793 5791 5789 5786 5783 5781 5779 5777 5774 5772 5770 5768 5766 5763 5762 5760 5757 5754 5753 5753 5752 5749 5745 5745 5746 5744 5743 5742 5740 5739 5737 5736 5735 5734 5733 5733 5733 5733 5733 5733 5733 5734 5734 5735 5736 5737 5739 5742 5744
5825 5823 5822 5821 5818 5816 5815 5814 5812 5811 5810 5809 5808 5807 5806 5804 5802 5800 5799 5798 5796 5794 5793 5792 5789 5786 5784 5782 5779 5776 5774 5772 5770 5768 5766 5763 5761 5759 5756 5755 5753 5750 5746 5744 5745 5746 5742 5738 5738 5739 5738 5736 5735 5734 5732 5731 5729 5728 5727 5727 5726 5726 5726 5726 5726 5726 5726 5727 5728 5729 5730 5731 5733 5736
5820 5819 5818 5817 5814 5812 5810 5808 5807 5806 5805 5804 5803 5802 5801 5799 5796 5795 5793 5791 5790 5788 5787 5785 5783 5780 5777 5775 5772 5769 5767 5765 5763 5761 5759 5757 5754 5752 5750 5748 5746 5742 5739 5736 5736 5738 5735 5731 5731 5733 5731 5729 5728 5726 5725 5723 5722 5721 5720 5720 5720 5719 5719 5719 5719 5719 5719 5719 5720 5721 5722 5723 5725 5727
5816 5815 5814 5813 5811 5808 5805 5803 5802 5801 5800 5799 5798 5797 5795 5793 5791 5789 5787 5785 5784 5782 5780 5778 5776 5773 5770 5767 5765 5763 5760 5758 5756 5754 5752 5750 5747 5746 5744 5741 5739 5736 5732 5728 5727 5729 5728 5725 5725 5726 5724 5722 5721 5719 5717 5716 5715 5714 5714 5713 5713 5713 5712 5712 5712 5711 5711 5711 5712 5712 5713 5714 5716 5718
5813 5813 5811 5809 5807 5805 5802 5799 5797 5796 5795 5794 5793 5792 5790 5788 5786 5784 5782 5780 5778 5777 5775 5772 5770 5767 5764 5761 5758 5756 5754 5751 5749 5747 5745 5743 5740 5739 5737 5735 5732 5729 5726 5722 5719 5720 5721 5719 5719 5719 5717 5715 5714 5713 5711 5709 5709 5708 5708 5707 5706 5706 5705 5704 5704 5703 5703 5703 5703 5704 5704 5705 5707 5709
5811 5810 5808 5805 5803 5800 5798 5796 5793 5791 5790 5789 5787 5786 5784 5783 5781 5779 5777 5775 5772 5770 5768 5765 5763 5761 5758 5755 5752 5750 5747 5744 5742 5740 5738 5735 5733 5731 5729 5728 5726 5723 5720 5715 5712 5712 5714 5712 5712 5712 5710 5708 5707 5706 5705 5704 5703 5702 5701 5700 5699 5698 5697 5696 5695 5694 5694 5693 5693 5694 5694 5695 5696 5698
5808 5806 5804 5801 5798 5796 5794 5792 5790 5788 5786 5784 5782 5780 5779 5777 5775 5773 5771 5768 5766 5764 5762 5759 5756 5754 5751 5749 5746 5743 5740 5737 5735 5733 5732 5729 5726 5724 5722 5721 5719 5717 5714 5709 5706 5706 5707 5706 5705 5704 5702 5702 5701 5699 5699 5698 5697 5696 5694 5693 5692 5690 5688 5687 5686 5685 5684 5683 5682 5681 5682 5683 5684 5685
5803 5801 5798 5796 5794 5792 5790 5788 5786 5784 5782 5779 5777 5775 5773 5771 5769 5767 5764 5761 5759 5757 5755 5752 5750 5747 5745 5742 5740 5737 5734 5731 5728 5726 5725 5723 5720 5718 5716 5714 5713 5711 5709 5704 5701 5701 5701 5701 5700 5697 5694 5695 5696 5694 5692 5692 5690 5689 5687 5686 5684 5682 5680 5678 5676 5674 5673 5671 5670 5669 5670 5671 5671 5672
5798 5795 5793 5791 5789 5787 5786 5783 5781 5779 5777 5774 5772 5770 5768 5766 5763 5761 5758 5755 5752 5750 5748 5745 5743 5741 5739 5736 5734 5731 5729 5725 5722 5720 5718 5716 5714 5712 5710 5708 5707 5706 5703 5699 5697 5696 5696 5695 5694 5690 5687 5687 5689 5688 5687 5685 5683 5681 5680 5678 5676 5674 5671 5668 5666 5663 5661 5659 5658 5658 5658 5659 5659 5660
5792 5790 5788 5786 5784 5782 5779 5777 5775 5774 5771 5769 5767 5765 5763 5760 5758 5755 5752 5749 5746 5744 5742 5739 5737 5735 5732 5730 5728 5725 5723 5720 5717 5714 5712 5710 5708 5706 5704 5703 5701 5699 5697 5694 5692 5691 5691 5690 5688 5685 5682 5681 5680 5680 5680 5679 5677 5674 5672 5670 5667 5664 5661 5658 5655 5653 5650 5649 5648 5648 5649 5650 5650 5652
5787 5785 5784 5782 5779 5776 5774 5772 5770 5769 5766 5764 5762 5760 5757 5755 5752 5749 5746 5744 5741 5738 5736 5734 5731 5729 5727 5724 5722 5719 5717 5714 5711 5709 5706 5704 5702 5700 5699 5697 5695 5694 5692 5689 5687 5686 5685 5684 5681 5678 5677 5675 5674 5672 5671 5672 5671 5668 5665 5662 5658 5655 5651 5647 5644 5643 5641 5640 5640 5640 5641 5642 5643 5645
5782 5780 5778 5776 5774 5772 5770 5768 5766 5764 5762 5759 5757 5754 5751 5749 5746 5743 5741 5738 5736 5733 5731 5728 5726 5723 5720 5718 5716 5713 5711 5708 5706 5704 5702 5699 5697 5696 5694 5691 5690 5688 5686 5684 5683 5681 5679 5678 5675 5672 5670 5669 5667 5665 5663 5663 5663 5661 5658 5655 5652 5648 5642 5637 5634 5634 5633 5633 5634 5634 5635 5636 5637 5638
5776 5774 5772 5770 5768 5767 5765 5763 5761 5759 5756 5754 5751 5748 5746 5743 5741 5738 5736 5733 5730 5728 5725 5722 5720 5717 5714 5712 5710 5708 5705 5703 5701 5699 5697 5695 5693 5691 5690 5687 5685 5683 5681 5680 5678 5676 5674 5672 5670 5667 5665 5662 5659 5657 5655 5655 5654 5653 5651 5649 5647 5642 5635 5629 5627 5627 5627 5627 5628 5629 5630 5631 5632 5633
5770 5768 5766 5764 5762 5760 5759 5757 5755 5752 5750 5748 5745 5743 5740 5738 5735 5733 5730 5727 5724 5722 5719 5716 5714 5711 5709 5707 5704 5702 5700 5698 5696 5694 5692 5690 5688 5687 5686 5683 5681 5679 5677 5675 5673 5671 5669 5667 5664 5662 5660 5657 5653 5650 5648 5648 5648 5646 5642 5639 5638 5635 5628 5623 5622 5621 5621 5621 5623 5624 5624 5626 5627 5628
5764 5762 5760 5758 5756 5754 5753 5750 5748 5746 5744 5741 5739 5737 5735 5732 5729 5727 5724 5721 5718 5715 5713 5710 5708 5705 5703 5701 5699 5697 5695 5693 5691 5689 5688 5686 5684 5683 5681 5680 5677 5675 5673 5671 5668 5666 5664 5661 5659 5657 5655 5652 5648 5644 5642 5641 5642 5640 5635 5630 5628 5626 5623 5619 5617 5616 5615 5616 5617 5618 5619 5620 5622 5623
5758 5756 5754 5753 5751 5749 5746 5744 5742 5740 5738 5735 5733 5731 5729 5726 5723 5720 5718 5715 5711 5708 5705 5702 5701 5699 5697 5695 5693 5691 5690 5688 5686 5685 5683 5681 5679 5678 5677 5675 5673 5671 5669 5666 5663 5661 5659 5656 5654 5651 5649 5647 5643 5639 5637 5635 5634 5633 5630 5625 5620 5619 5618 5615 5614 5612 5611 5611 5613 5613 5614 5615 5616 5618
5752 5750 5748 5747 5745 5742 5740 5737 5736 5734 5732 5730 5728 5725 5723 5720 5716 5713 5710 5708 5705 5702 5699 5697 5695 5694 5692 5690 5688 5686 5685 5683 5681 5679 5678 5676 5675 5674 5672 5671 5669 5667 5665 5662 5659 5657 5654 5652 5650 5647 5644 5642 5639 5635 5632 5631 5628 5626 5623 5620 5615 5613 5612 5611 5610 5609 5607 5606 5608 5609 5609 5610 5610 5612
5746 5744 5742 5740 5738 5736 5734 5732 5730 5729 5726 5724 5722 5719 5716 5713 5710 5708 5705 5703 5701 5698 5696 5693 5691 5689 5687 5685 5683 5681 5680 5678 5676 5675 5673 5672 5671 5669 5668 5666 5664 5662 5660 5658 5656 5653 5651 5648 5646 5644 5641 5638 5635 5630 5626 5625 5624 5620 5616 5613 5610 5609 5608 5606 5605 5605 5603 5602 5603 5604 5605 5605 5605 5607
5741 5739 5736 5734 5732 5730 5729 5727 5725 5723 5721 5718 5716 5713 5710 5707 5705 5703 5701 5698 5695 5692 5690 5688 5686 5683 5682 5680 5678 5676 5675 5673 5672 5670 5669 5667 5666 5664 5663 5661 5659 5657 5655 5654 5652 5649 5647 5645 5643 5641 5638 5635 5632 5627 5619 5616 5615 5614 5611 5607 5604 5604 5604 5602 5601 5600 5599 5598 5599 5599 5600 5601 5601 5602
5735 5733 5732 5729 5727 5724 5723 5721 5718 5716 5714 5712 5709 5706 5704 5701 5699 5696 5694 5692 5689 5686 5684 5683 5681 5678 5677 5675 5673 5672 5670 5669 5667 5666 5664 5663 5661 5660 5658 5656 5655 5653 5651 5649 5647 5645 5643 5641 5640 5638 5636 5633 5631 5627 5619 5610 5606 5606 5606 5604 5600 5598 5599 5599 5597 5596 5595 5594 5594 5595 5596 5596 5597 5599
5728 5727 5725 5723 5721 5718 5716 5715 5712 5709 5707 5704 5701 5699 5697 5694 5692 5690 5688 5685 5682 5680 5678 5676 5674 5673 5671 5670 5668 5667 5665 5664 5663 5661 5660 5658 5657 5655 5653 5652 5650 5649 5647 5644 5642 5640 5639 5637 5635 5634 5633 5630 5629 5627 5622 5613 5604 5599 5599 5600 5598 5595 5595 5595 5593 5592 5591 5590 5590 5591 5592 5593 5594 5596
5723 5721 5719 5717 5715 5713 5711 5709 5706 5704 5701 5699 5696 5693 5692 5689 5686 5684 5683 5680 5677 5675 5673 5670 5669 5667 5666 5665 5663 5662 5661 5659 5658 5657 5655 5654 5652 5651 5649 5648 5646 5644 5642 5640 5638 5636 5634 5633 5631 5629 5628 5626 5625 5623 5621 5616 5608 5600 5595 5594 5594 5592 5591 5591 5590 5589 5588 5587 5587 5587 5588 5590 5592 5593
5717 5716 5714 5711 5709 5707 5706 5704 5701 5699 5696 5694 5692 5690 5688 5685 5682 5680 5678 5676 5673 5671 5668 5666 5664 5663 5662 5660 5659 5657 5656 5655 5653 5652 5651 5649 5648 5646 5645 5643 5642 5640 5639 5637 5634 5632 5630 5628 5626 5625 5623 5621 5620 5618 5616 5613 5609 5603 5595 5591 5590 5589 5588 5588 5587 5586 5585 5585 5585 5585 5586 5588 5590 5591
5713 5710 5708 5706 5704 5703 5701 5699 5697 5695 5692 5690 5688 5686 5684 5681 5679 5676 5674 5672 5669 5667 5664 5662 5661 5659 5657 5656 5654 5653 5652 5650 5649 5648 5646 5645 5643 5642 5640 5639 5638 5637 5635 5633 5631 5629 5627 5624 5623 5621 5619 5616 5615 5613 5610 5607 5604 5600 5593 5588 5586 5586 5586 5585 5584 5583 5583 5583 5583 5583 5584 5586 5587 5589
5707 5705 5703 5701 5699 5698 5696 5695 5693 5691 5689 5686 5684 5682 5680 5677 5675 5672 5670 5667 5665 5663 5660 5658 5656 5655 5653 5651 5650 5649 5647 5646 5645 5644 5642 5641 5639 5638 5637 5635 5634 5633 5632 5630 5627 5626 5623 5621 5619 5617 5615 5613 5611 5609 5606 5603 5599 5596 5591 5587 5583 5582 5582 5582 5582 5581 5581 5581 5581 5582 5583 5584 5586 5587
5702 5700 5698 5697 5695 5693 5692 5690 5688 5687 5685 5683 5681 5679 5677 5674 5671 5668 5666 5663 5661 5659 5656 5654 5653 5651 5649 5647 5646 5645 5643 5642 5641 5639 5638 5637 5635 5634 5633 5632 5630 5629 5628 5626 5624 5622 5620 5618 5616 5614 5612 5610 5608 5606 5604 5601 5598 5595 5591 5587 5583 5580 5579 5579 5579 5579 5579 5580 5580 5580 5581 5582 5584 5586
5698 5697 5695 5693 5692 5690 5688 5687 5685 5683 5682 5680 5678 5676 5674 5671 5668 5665 5663 5660 5657 5655 5652 5650 5649 5647 5645 5644 5642 5641 5640 5638 5637 5636 5634 5633 5632 5631 5629 5628 5627 5625 5624 5622 5621 5619 5617 5615 5613 5612 5609 5607 5605 5603 5601 5598 5595 5592 5590 5586 5583 5580 5578 5577 5577 5577 5577 5578 5578 5579 5580 5581 5582 5584
5694 5693 5691 5690 5688 5687 5685 5684 5682 5681 5679 5677 5675 5673 5671 5668 5666 5663 5660 5657 5654 5652 5649 5647 5645 5644 5642 5640 5639 5637 5636 5635 5634 5633 5631 5630 5629 5627 5626 5624 5623 5621 5620 5619 5617 5615 5614 5612 5610 5609 5607 5604 5602 5600 5599 5596 5593 5589 5586 5584 5581 5578 5577 5576 5575 5575 5576 5576 5577 5577 5578 5579 5580 5582
5690 5689 5688 5686 5685 5684 5682 5681 5680 5678 5676 5674 5672 5670 5668 5665 5663 5660 5657 5654 5652 5649 5647 5645 5643 5641 5639 5638 5636 5635 5634 5632 5631 5630 5628 5627 5625 5624 5622 5621 5619 5618 5616 5615 5614 5612 5610 5608 5607 5605 5604 5602 5600 5597 5596 5594 5591 5587 5583 5580 5578 5577 5575 5574 5574 5574 5574 5575 5575 5576 5577 5577 5578 5580
5686 5685 5684 5683 5682 5681 5680 5679 5677 5676 5674 5672 5670 5668 5665 5663 5660 5657 5654 5652 5649 5647 5645 5643 5641 5639 5637 5635 5634 5632 5631 5630 5628 5627 5625 5624 5622 5620 5618 5617 5615 5614 5612 5611 5610 5609 5607 5606 5604 5602 5601 5599 5597 5595 5592 5590 5588 5585 5581 5577 5576 5575 5574 5573 5572 5573 5573 5573 5574 5575 5575 5576 5577 5578